Location: ??????
(41.3794°N, 22.5014°E)
Time: 08:26:52
(UTC+00:00)

COSMO-SKYMED 1 - Pass Details

Date: 30 November 2020
Orbit: 621 x 623 km, 97.9° (Epoch: 17 January)

Event Time Altitude Azimuth Distance (km) Brightness Sun altitude
Exits shadow 15:26:54 - 37° (NE) 2,631 5.2 -5.1°
Reaches altitude 10° 15:29:09 10° 56° (NE) 1,999 4.5 -5.5°
Maximum altitude 15:31:39 15° 91° (E) 1,691 4.3 -5.9°
Drops below altitude 10° 15:34:07 10° 127° (SE) 1,989 4.9 -6.3°
Sets 15:37:11 0° 150° (SSE) 2,889 5.9 -6.8°
